Showing default

ORS 5 SENSORSAT, 42921

Orbit data source: Space-Track

ORS 5 SENSORSAT, 42921 is a payload satellite owned by DoD ORS (US) in LEO that was launched on Sat, 26 Aug 2017 UTC via an MINOTAUR IV launch vehicle from the Air Force Eastern Test Range (AFETR). Payload-class satellites include a variety of spacecraft equipped with specific instruments for various scientific and technological missions. These include communications satellites like Starlink; space stations such as the ISS; scientific satellites like the Hubble; Earth observation satellites from companies like Planet Labs, Umbra, and HawkEye 360; GPS; miniature CubeSats for education and research; and military/defense satellites.

Not visible in the next 10 days
Identifier
42921, 2017-050A
Orbit
LEO
Country
Flag of USUS
Related business
Manufacturer
MIT-LL
Mission
Operational Defense Early Warn
Bus & Motor
ORS-5, Unknown motor
Mass
~110 kg wet, ~110 kg dry
Launch date (UTC)
2017-08-26 (8 years ago)
Launch vehicle
MINOTAUR IV
Launch site
Air Force Eastern Test Range (AFETR)
Object type
Payload
Rocket body
Debris
Shape & HBR
Box + 2 Pan, 0.8 m
Radar Cross Section
1.080 m², Medium (>0.1 m² and < 1m²)

Expand to show TLE details & history
Last TLE update: 22 hours ago

TLE from 22 hours ago
0 ORS 5 SENSORSAT
1 42921U 17050A   25301.11195911  .00004151  00000-0  26163-3 0  9992
2 42921   0.0486  72.1301 0010662 205.9380  81.8110 14.99705822446172
Epoch: 2025-10-28T02:41Z
TLE epoch observation values (Epoch: 2025-10-28T02:41:13.267Z)
Latitude
-0.04651°
Longitude
-77.00939°
Altitude
563.609 km
Speed
7.583 km/s
True Right ascension
00h 00m 00s
True Declination
0° 02' 46"
Sunlit
Object was in full shadow at epoch
Visualization orbit readout
Latitude
Unknown
Longitude
Unknown
Altitude
Unknown
Speed
Unknown
Apparent Right ascension
Unknown
Apparent Declination
Unknown
Sunlit
N/A
Visualization observer readout
Local Sidereal Time
20:14:49
Azimuth
Unknown
Elevation
Unknown
Doppler factor
Unknown
Orbital elements
Apogee altitude
581.566 km
Perigee altitude
566.741 km
Semi-major axis
6,952.291 km
Eccentricity
0.00107
Inclination
0.0486°
RAAN
72.1301°
Arg. of periapsis
205.938°
True anomaly
81.93195°
Mean anomaly
81.811°
Eccentric anomaly
81.87148°
Mean motion
3.74413 °/min
Orbital period
96.15 mins
BSTAR
0.00026163
Loading maneuver chart data...
Computing Atmospheric mass density...
Loading historical data...
Loading historical data...
Loading historical data...
Loading historical data...
Loading historical data...
Loading historical data...
Loading historical data...

Documentation

Showing up to 5 results
|